Change the Weather History Date:

Tuesday, August 27, 2013

  Actual Average Record
Temperature  
Mean Temperature 76 °F 76 °F  
Max Temperature 89 °F 85 °F 100 °F (1953)
Min Temperature 63 °F 66 °F 54 °F (1952)
Degree Days  
Heating Degree Days 0 0  
Month to date heating degree days 0 0  
Since 1 June heating degree days 0 3  
Since 1 July heating degree days 0 0  
Cooling Degree Days 11 11  
Month to date cooling degree days 268 334  
Year to date cooling degree days 1158 1187  
Since 1 June cooling degree days 996 1043  
Growing Degree Days 26 (Base 50)    
Moisture  
Dew Point 67 °F    
Average Humidity 73    
Maximum Humidity 94    
Minimum Humidity 52    
Precipitation  
Precipitation 0.00 in 0.14 in 5.81 in (2008)
Month to date precipitation 3.64 3.43  
Year to date precipitation 41.29 29.75  
Snow  
Snow 0.00 in - - ()
Month to date snowfall 0.0  
Since 1 June snowfall 0.0  
Since 1 July snowfall 0.0  
Snow Depth 0.00 in    
Sea Level Pressure  
Sea Level Pressure 30.01 in    
Wind  
Wind Speed 5 mph (West)    
Max Wind Speed 10 mph    
Max Gust Speed -    
Visibility 9 miles    
Events      
T = Trace of Precipitation, MM = Missing Value Source: NWS Daily Summary

Daily Weather History Graph

Daily Weather History Graph

Search for Another Location

Airport or City:

Trip Planner

Search our weather history database for the weather conditions in past years. The results will help you decide how hot, cold, wet, or windy it might be!

Date:

Astronomy

Aug. 27, 2013 Rise Set
Actual Time 6:44 AM EDT 7:52 PM EDT
Civil Twilight 6:18 AM EDT 8:18 PM EDT
Nautical Twilight 5:46 AM EDT 8:50 PM EDT
Astronomical Twilight 5:13 AM EDT 9:23 PM EDT
Moon 11:56 PM EDT (8/27) 1:29 PM EDT (8/27)
Length of Visible Light 14h 00m
Length of Day
13h 07m
Waning Gibbous, 57% of the Moon is Illuminated
Aug 27
Waning Gibbous
Aug 28
Last Quarter
Sep 5
New
Sep 12
First Quarter
Sep 19
Full

Hourly Weather History & Observations

Time (EDT) Temp. Heat Index Dew Point Humidity Pressure Visibility Wind Dir Wind Speed Gust Speed Precip Events Conditions
12:53 AM 66.0 °F - 62.1 °F 87% 30.09 in 10.0 mi SSW 5.8 mph - N/A   Clear
1:53 AM 64.9 °F - 62.1 °F 90% 30.07 in 10.0 mi SSW 4.6 mph - N/A   Clear
2:53 AM 64.0 °F - 61.0 °F 90% 30.06 in 10.0 mi SSW 3.5 mph - N/A   Clear
3:53 AM 64.0 °F - 61.0 °F 90% 30.05 in 10.0 mi SW 3.5 mph - N/A   Clear
4:53 AM 64.0 °F - 61.0 °F 90% 30.04 in 10.0 mi WSW 4.6 mph - N/A   Clear
5:53 AM 64.9 °F - 62.1 °F 90% 30.04 in 10.0 mi WSW 6.9 mph - N/A   Clear
6:53 AM 64.9 °F - 62.1 °F 90% 30.04 in 10.0 mi West 4.6 mph - N/A   Clear
7:53 AM 66.9 °F - 63.0 °F 87% 30.05 in 10.0 mi West 6.9 mph - N/A   Clear
8:53 AM 71.1 °F - 64.9 °F 81% 30.03 in 10.0 mi SW 5.8 mph - N/A   Clear
9:53 AM 75.9 °F - 66.0 °F 71% 30.04 in 10.0 mi WNW 6.9 mph - N/A   Clear
10:53 AM 82.0 °F 85.5 °F 69.1 °F 65% 30.03 in 10.0 mi NW 5.8 mph - N/A   Clear
11:53 AM 86.0 °F 90.1 °F 69.1 °F 57% 30.02 in 10.0 mi NW 10.4 mph - N/A   Clear
12:53 PM 87.1 °F 90.6 °F 68.0 °F 53% 30.01 in 10.0 mi North 6.9 mph - N/A   Clear
1:53 PM 89.1 °F 93.7 °F 69.1 °F 52% 29.99 in 10.0 mi Variable 5.8 mph - N/A   Clear
2:53 PM 89.1 °F 93.7 °F 69.1 °F 52% 29.98 in 10.0 mi WNW 6.9 mph - N/A   Partly Cloudy
3:53 PM 88.0 °F 92.1 °F 69.1 °F 53% 29.96 in 10.0 mi WNW 6.9 mph - N/A   Clear
4:53 PM 88.0 °F 92.9 °F 70.0 °F 55% 29.96 in 9.0 mi NNW 4.6 mph - N/A   Partly Cloudy
5:53 PM 86.0 °F 90.7 °F 70.0 °F 59% 29.96 in 9.0 mi Calm Calm - N/A   Partly Cloudy
6:53 PM 81.0 °F 85.8 °F 73.0 °F 77% 29.96 in 7.0 mi Calm Calm - N/A   Overcast
7:53 PM 78.1 °F - 73.0 °F 84% 29.95 in 4.0 mi Calm Calm - N/A   Haze
8:53 PM 77.0 °F - 75.0 °F 94% 29.96 in 4.0 mi Calm Calm - N/A   Mostly Cloudy
9:53 PM 75.9 °F - 73.0 °F 91% 29.97 in 5.0 mi West 3.5 mph - N/A   Overcast
10:53 PM 78.1 °F - 73.0 °F 84% 29.98 in 6.0 mi WNW 5.8 mph - N/A   Haze
11:53 PM 73.9 °F - 71.1 °F 91% 29.97 in 4.0 mi SSW 3.5 mph - N/A   Clear